This demonstration page uses our WeatherBlox Daily Observations layout. Learn more.

Left ArrowRight Arrow

39.51506, -84.39828

Hourly Observations for April 9, 2016

Temp ( °F °C ) Dew Point ( °F °C ) Humidity (%) Winds ( mph kmh ) Pressure ( in mb ) Visibility ( mi km ) Precip ( " mm )
12:15 am 00:15 Cloudy 34 1.2 31 -0.5 89 89 NNW 3 6 29.88 1012 10 16 N/A
12:35 am 00:35 Cloudy 34 1.2 31 -0.8 87 87 N 7 11 29.88 1012 10 16 N/A
12:55 am 00:55 Cloudy with Heavy Snow 34 1.2 31 -0.5 89 89 NW 14 22 29.91 1013 1 1 N/A
1:15 am 01:15 Cloudy with Light Snow 34 1.2 31 -0.5 89 89 NNW 9 15 29.91 1013 2 2 N/A
1:35 am 01:35 Cloudy with Light Snow 34 1.2 31 -0.7 87 87 NW 5 7 29.91 1013 2 2 N/A
1:55 am 01:55 Mostly Cloudy 34 1.2 30 -0.9 86 86 W 5 7 29.91 1013 10 16 N/A
2:15 am 02:15 Mostly Cloudy 34 1.2 29 -1.4 83 83 WNW 12 19 29.91 1013 10 16 N/A
2:35 am 02:35 Partly Cloudy 34 1.2 29 -1.6 82 82 WNW 9 15 29.91 1013 10 16 N/A
2:55 am 02:55 Clear 34 1 29 -1.9 81 81 W 10 17 29.91 1013 10 16 N/A
3:15 am 03:15 Clear 32 undefined 27 -3 80 80 W 8 13 29.91 1013 10 16 N/A
3:35 am 03:35 Clear 32 undefined 27 -3 80 80 W 8 13 29.91 1013 10 16 N/A
3:55 am 03:55 Clear 32 undefined 26 -3.2 79 79 W 9 15 29.91 1013 10 16 N/A
4:15 am 04:15 Clear 34 1.2 27 -2.6 76 76 WNW 12 19 29.91 1013 10 16 N/A
4:35 am 04:35 Partly Cloudy 34 1.2 27 -2.7 76 76 WNW 13 20 29.94 1014 10 16 N/A
4:55 am 04:55 Mostly Cloudy 34 1.2 26 -3.1 73 73 WNW 16 26 29.94 1014 10 16 N/A
5:15 am 05:15 Cloudy with Light Wintry Mix 34 1.2 26 -3.2 73 73 WNW 17 28 29.94 1014 10 16 N/A
5:35 am 05:35 Cloudy with Light Snow 34 1.2 27 -3 74 74 WNW 16 26 29.94 1014 10 16 N/A
5:55 am 05:55 Cloudy with Light Snow 33 0.6 28 -2.5 80 80 WNW 18 30 29.97 1015 4 6 N/A
6:15 am 06:15 Cloudy with Light Snow 32 undefined 27 -2.6 83 83 NW 16 26 30.00 1016 2 3 N/A
6:35 am 06:35 Cloudy 32 undefined 26 -3.4 78 78 NW 23 37 30.00 1016 10 16 N/A
6:55 am 06:55 Mostly Cloudy with Light Wintry Mix 31 -0.8 23 -4.8 75 75 NNW 17 28 30.03 1017 7 11 N/A
7:15 am 07:15 Mostly Cloudy 29 -1.5 23 -5.2 76 76 NNW 10 17 30.06 1018 10 16 N/A
7:35 am 07:35 Cloudy 30 -0.9 24 -4.6 76 76 NNW 15 24 30.06 1018 10 16 N/A
7:55 am 07:55 Cloudy 31 -0.7 24 -4.5 76 76 NNW 9 15 30.09 1019 10 16 N/A
8:15 am 08:15 Cloudy 31 -0.6 23 -4.9 73 73 NNW 8 13 30.12 1020 10 16 N/A
8:35 am 08:35 Cloudy 31 -0.7 22 -5.4 71 71 NNW 12 19 30.12 1020 10 16 N/A
8:55 am 08:55 Cloudy 31 -0.3 23 -5.1 70 70 NNW 12 19 30.15 1021 10 16 N/A
9:15 am 09:15 Cloudy 32 undefined 24 -4.6 71 71 NW 8 13 30.15 1021 10 16 N/A
9:35 am 09:35 Cloudy 32 undefined 23 -5.1 69 69 NW 15 24 30.18 1022 10 16 N/A
9:55 am 09:55 Cloudy with Light Snow 32 undefined 24 -4.3 73 73 NNW 8 13 30.18 1022 5 8 N/A
10:15 am 10:15 Mostly Cloudy 32 0.2 24 -4.6 70 70 NW 8 13 30.18 1022 10 16 N/A
10:35 am 10:35 Mostly Cloudy 34 1.2 23 -5.1 63 63 NNW 12 19 30.21 1023 10 16 N/A
10:55 am 10:55 Cloudy 34 1.2 22 -5.4 62 62 NW 13 20 30.21 1023 10 16 N/A
11:15 am 11:15 Mostly Cloudy 34 1.2 23 -5.2 63 63 NW 14 22 30.21 1023 10 16 N/A
11:35 am 11:35 Partly Cloudy 34 1.2 21 -6 59 59 NNW 14 22 30.24 1024 10 16 N/A
11:55 am 11:55 Partly Cloudy 34 1.2 21 -6.3 58 58 NNW 13 20 30.24 1024 10 16 N/A
12:15 pm 12:15 Partly Cloudy 34 1.2 18 -7.6 52 52 NW 15 24 30.24 1024 10 16 N/A
12:35 pm 12:35 Partly Cloudy 36 2.3 20 -6.7 52 52 NNW 17 28 30.24 1024 10 16 N/A
12:55 pm 12:55 Sunny 37 2.6 20 -6.8 50 50 NW 14 22 30.24 1024 10 16 N/A
1:15 pm 13:15 Partly Cloudy 37 2.6 19 -7.4 48 48 NW 13 20 30.24 1024 10 16 N/A
1:35 pm 13:35 Partly Cloudy 37 3 18 -7.9 45 45 NNW 22 35 30.27 1025 10 16 N/A
1:55 pm 13:55 Mostly Cloudy 37 2.8 18 -7.6 47 47 NW 14 22 30.27 1025 10 16 N/A
2:15 pm 14:15 Mostly Cloudy 38 3.3 16 -8.7 41 41 WNW 13 20 30.27 1025 10 16 N/A
2:35 pm 14:35 Mostly Cloudy 37 3 17 -8.4 43 43 NW 16 26 30.27 1025 10 16 N/A
2:55 pm 14:55 Mostly Cloudy 37 2.6 13 -10.6 37 37 NNW 14 22 30.27 1025 10 16 N/A
3:15 pm 15:15 Mostly Cloudy 40 4.2 16 -8.9 38 38 NW 9 15 30.24 1024 10 16 N/A
3:35 pm 15:35 Mostly Cloudy 39 4 17 -8.5 40 40 N 14 22 30.24 1024 10 16 N/A
3:55 pm 15:55 Mostly Cloudy 40 4.3 17 -8.4 40 40 WNW 13 20 30.24 1024 10 16 N/A
4:15 pm 16:15 Cloudy 39 4 16 -9.1 38 38 NNW 13 20 30.24 1024 10 16 N/A
4:35 pm 16:35 Cloudy with Light Rain 39 4 17 -8.3 41 41 N 9 15 30.27 1025 10 16 N/A
4:55 pm 16:55 Cloudy 39 4 15 -9.5 37 37 N 13 20 30.27 1025 10 16 N/A
5:15 pm 17:15 Mostly Cloudy 40 4.4 15 -9.6 36 36 WNW 9 15 30.27 1025 10 16 N/A
5:35 pm 17:35 Mostly Cloudy 40 4.7 14 -10 34 34 NW 6 9 30.27 1025 10 16 N/A
5:55 pm 17:55 Cloudy 40 4.4 16 -9 37 37 N 10 17 30.27 1025 10 16 N/A
6:15 pm 18:15 Cloudy 39 4 18 -7.9 42 42 NNW 7 11 30.27 1025 10 16 N/A
6:35 pm 18:35 Cloudy 39 4 18 -7.7 43 43 N 8 13 30.27 1025 10 16 N/A
6:55 pm 18:55 Cloudy 39 4 17 -8.3 41 41 N 7 11 30.27 1025 10 16 N/A
7:15 pm 19:15 Mostly Cloudy 39 4 15 -9.3 38 38 WNW 8 13 30.27 1025 10 16 N/A
7:35 pm 19:35 Mostly Cloudy 39 4 15 -9.6 37 37 NW 6 9 30.27 1025 10 16 N/A
7:55 pm 19:55 Cloudy 39 4 14 -9.8 36 36 N 7 11 30.30 1026 10 16 N/A
8:15 pm 20:15 Cloudy 37 2.6 15 -9.4 41 41 N 5 7 30.30 1026 10 16 N/A
8:35 pm 20:35 Mostly Cloudy 37 2.6 16 -9.1 42 42 N N/A 30.30 1026 10 16 N/A
8:55 pm 20:55 Partly Cloudy 37 2.6 16 -9 42 42 N N/A 30.30 1026 10 16 N/A
9:15 pm 21:15 Partly Cloudy 35 1.7 21 -6.3 56 56 N N/A 30.30 1026 10 16 N/A
9:35 pm 21:35 Partly Cloudy 34 1.2 26 -3.5 71 71 N N/A 30.30 1026 10 16 N/A
9:55 pm 21:55 Clear 31 -0.3 24 -4.7 73 73 N N/A 30.30 1026 10 16 N/A
10:15 pm 22:15 Clear 32 undefined 24 -4.6 71 71 N N/A 30.30 1026 10 16 N/A
10:35 pm 22:35 Clear 31 -0.8 24 -4.6 76 76 N 3 6 30.33 1027 10 16 N/A
10:55 pm 22:55 Clear 29 -1.5 24 -4.5 80 80 N N/A 30.33 1027 10 16 N/A
11:15 pm 23:15 Clear 29 -1.5 23 -5 77 77 N N/A 30.33 1027 10 16 N/A
11:35 pm 23:35 Clear 30 -1.3 24 -4.6 79 79 N N/A 30.30 1026 10 16 N/A
11:55 pm 23:55 Clear 29 -1.5 24 -4.5 80 80 N N/A 30.30 1026 10 16 N/A

Powered by AerisWeather